WetterOnline ( http://www.wetteronline.de )

Wetter aktuell Würzburg

Aktuelles Wetter: Würzburg (272m)

6-stündlich | Neueste Meldungen
Ortszeit Temperatur Wetter
Sa, 20.10. 2:00 10.6° C bedeckt
Fr, 19.10. 20:00 13.6° C leicht bewölkt
Fr, 19.10. 14:00 17.7° C wolkig
Fr, 19.10. 8:00 8.5° C fast wolkenlos
Fr, 19.10. 2:00 10.6° C leicht bewölkt
Do, 18.10. 20:00 15.3° C wolkenlos
Do, 18.10. 14:00 20.2° C leicht bewölkt
Do, 18.10. 8:00 7.2° C Nebel
Ortszeit Temperatur Wetter
Sa, 20.10. 3:30 10.7° C bedeckt
Sa, 20.10. 3:10 10.1° C bedeckt
Sa, 20.10. 3:00 10.2° C bedeckt
Sa, 20.10. 2:50 10.2° C bedeckt
Sa, 20.10. 2:40 10.5° C bedeckt
Sa, 20.10. 2:30 10.6° C bewölkt
Sa, 20.10. 2:00 10.6° C bedeckt
Sa, 20.10. 1:30 11.3° C bedeckt
Sa, 20.10. 1:00 11.5° C bedeckt
Sa, 20.10. 0:30 11.1° C bedeckt
Ortszeit Relative Feuchte Sichtweite
Sa, 20.10. 2:00 86% 6 km
Fr, 19.10. 20:00 73% 9 km
Fr, 19.10. 14:00 60% 11 km
Fr, 19.10. 8:00 97% 3.8 km
Fr, 19.10. 2:00 89% 7 km
Do, 18.10. 20:00 74% 7 km
Do, 18.10. 14:00 54% 14 km
Do, 18.10. 8:00 97% 0.2 km
Ortszeit Relative Feuchte Sichtweite
Sa, 20.10. 3:30 86% 6 km
Sa, 20.10. 3:10 88% -
Sa, 20.10. 3:00 88% 6 km
Sa, 20.10. 2:50 88% -
Sa, 20.10. 2:40 87% -
Sa, 20.10. 2:30 86% 6 km
Sa, 20.10. 2:00 86% 6 km
Sa, 20.10. 1:30 83% 7 km
Sa, 20.10. 1:00 82% 8 km
Sa, 20.10. 0:30 85% 7 km
Ortszeit Niederschlagsmenge Niederschlagsart
Sa, 20.10. 2:00 0.0 l/m2 in 6 Std. -
Fr, 19.10. 20:00 0.0 l/m2 in 12 Std. -
Fr, 19.10. 14:00 0.0 l/m2 in 6 Std. -
Fr, 19.10. 8:00 0.0 l/m2 in 12 Std. -
Fr, 19.10. 2:00 0.0 l/m2 in 6 Std. -
Do, 18.10. 20:00 0.0 l/m2 in 12 Std. -
Do, 18.10. 14:00 0.0 l/m2 in 6 Std. -
Do, 18.10. 8:00 0.0 l/m2 in 12 Std. -
Ortszeit Niederschlagsmenge Niederschlagsart
Sa, 20.10. 3:30 0.0 l/m2 in 1 Std. -
Sa, 20.10. 3:10 keine Meldung -
Sa, 20.10. 3:00 0.0 l/m2 in 1 Std. -
Sa, 20.10. 2:50 keine Meldung -
Sa, 20.10. 2:40 keine Meldung -
Sa, 20.10. 2:30 0.0 l/m2 in 1 Std. -
Sa, 20.10. 2:00 0.0 l/m2 in 1 Std. -
Sa, 20.10. 1:30 0.0 l/m2 in 1 Std. -
Sa, 20.10. 1:00 0.0 l/m2 in 1 Std. -
Sa, 20.10. 0:30 0.0 l/m2 in 1 Std. -
Ortszeit Stärke Spitze Richtung
km/h Bft. km/h Grad Sektor
Sa, 20.10. 2:00 0 0 11 - -
Fr, 19.10. 20:00 7 2 18 80° O
Fr, 19.10. 14:00 11 2 25 110° O
Fr, 19.10. 8:00 7 2 18 30° NO
Fr, 19.10. 2:00 11 2 29 50° NO
Do, 18.10. 20:00 15 3 33 50° NO
Do, 18.10. 14:00 7 2 14 100° O
Do, 18.10. 8:00 4 1 14 330° NW
Ortszeit Stärke Spitze Richtung
km/h Bft. km/h Grad Sektor
Sa, 20.10. 3:30 6 1 7 340° N
Sa, 20.10. 3:10 4 1 - 320° NW
Sa, 20.10. 3:00 4 1 11 150° SO
Sa, 20.10. 2:50 4 1 - 150° SO
Sa, 20.10. 2:40 4 1 - 360° N
Sa, 20.10. 2:30 6 1 9 350° N
Sa, 20.10. 2:00 0 0 4 - -
Sa, 20.10. 1:30 2 1 4 290° W
Sa, 20.10. 1:00 4 1 7 350° N
Sa, 20.10. 0:30 4 1 7 340° N
Ortszeit Untergrenze Bedeckung Gattung
total tief tief mittel hoch
Sa, 20.10. 2:00 1290 m 8/8 8/8 - - -
Fr, 19.10. 20:00 7200 m 6/8 0/8 - - -
Fr, 19.10. 14:00 780 m 5/8 4/8 - - -
Fr, 19.10. 8:00 1800 m 1/8 1/8 - - -
Fr, 19.10. 2:00 2100 m 1/8 3/8 - - -
Do, 18.10. 20:00 - 0/8 0/8 - - -
Do, 18.10. 14:00 10500 m 8/8 0/8 - - -
Do, 18.10. 8:00 <30 m 8/8 4/8 - - -
Ortszeit Bedeckungsgrad in Achtel und Wolkenuntergrenze
Sa, 20.10. 3:30 8(1260m)
Sa, 20.10. 3:10 8(1260m)
Sa, 20.10. 3:00 8(1290m)
Sa, 20.10. 2:50 8(1290m)
Sa, 20.10. 2:40 8(1320m)
Sa, 20.10. 2:30 7(1320m)
Sa, 20.10. 2:00 8(1290m)
Sa, 20.10. 1:30 8(1260m)
Sa, 20.10. 1:00 8(1260m)
Sa, 20.10. 0:30 8(1230m)
Ortszeit Luftdruck NN (hPa) Tendenz (hPa in 3 Std.)
Sa, 20.10. 2:00 1026 0,0
Fr, 19.10. 20:00 1024 + 0,9
Fr, 19.10. 14:00 1023 - 0,8
Fr, 19.10. 8:00 1024 + 0,4
Fr, 19.10. 2:00 1023 - 0,2
Do, 18.10. 20:00 1022 + 1,5
Do, 18.10. 14:00 1020 - 0,9
Do, 18.10. 8:00 1021 + 0,7
Ortszeit Luftdruck NN (hPa) Tendenz (hPa in 3 Std.)
Sa, 20.10. 3:30 1026 + 0,2
Sa, 20.10. 3:10 1026 keine Meldung
Sa, 20.10. 3:00 1026 + 0,1
Sa, 20.10. 2:50 1026 keine Meldung
Sa, 20.10. 2:40 1026 keine Meldung
Sa, 20.10. 2:30 1026 + 0,4
Sa, 20.10. 2:00 1026 0,0
Sa, 20.10. 1:30 1026 + 0,2
Sa, 20.10. 1:00 1026 + 0,5
Sa, 20.10. 0:30 1026 + 0,9
Ortszeit Schneehöhe (cm)
Sa, 20.10. 2:00 0
Fr, 19.10. 20:00 0
Fr, 19.10. 14:00 0
Fr, 19.10. 8:00 0
Fr, 19.10. 2:00 0
Do, 18.10. 20:00 0
Do, 18.10. 14:00 0
Do, 18.10. 8:00 0
Ortszeit Schneehöhe (cm)
Sa, 20.10. 3:30 0
Sa, 20.10. 3:10 0
Sa, 20.10. 3:00 0
Sa, 20.10. 2:50 0
Sa, 20.10. 2:40 0
Sa, 20.10. 2:30 0
Sa, 20.10. 2:00 0
Sa, 20.10. 1:30 0
Sa, 20.10. 1:00 0
Sa, 20.10. 0:30 0
Link zu dieser Seite / Seite empfehlen

Das Wetter in ...